Snowfall_Accumulation
0.0 0.0 0.0 0.0 0.0 0.0 0.0 0.0 0.0 0.0 0.0 0.0 0.0 0.0 0.0 0.0 0.0 0.0 0.0 0.0 0.0 0.0 0.0 0.0 0.0 0.0 0.0 0.0 0.0 0.0 0.0 0.0 0.0 0.0 0.0 0.0 0.0 0.0 0.0 0.0 0.0 0.0 0.0
0.0 0.0 0.0 0.0 0.0 0.0 0.0 0.0 0.0 0.0 0.0 0.0 0.0 0.0 0.0 0.0 0.0 0.0 0.0 0.0 0.0 0.0 0.0 0.0 0.0 0.0 0.0 0.0 0.0 0.0 0.0 0.0 0.0 0.0 0.0 0.0 0.0 0.0 0.0 0.0 0.0 0.0 0.0
0.0 0.0 0.0 0.0 0.0 0.0 0.0 0.0 0.0 0.0 0.0 0.0 0.0 0.0 0.0 0.0 0.0 0.0 0.0 0.0 0.0 0.0 0.0 0.0 0.0 0.0 0.0 0.0 0.0 0.0 0.0 0.0 0.0 0.0 0.0 0.0 0.0 0.0 0.0 0.0 0.0 0.0 0.0
0.0 0.0 0.0 0.0 0.0 0.0 0.0 0.0 0.0 0.0 0.0 0.0 0.0 0.0 0.0 0.0 0.0 0.0 0.0 0.0 0.0 0.0 0.0 0.0 0.0 0.0 0.0 0.0 0.0 0.0 0.0 0.0 0.0 0.0 0.0 0.0 0.0 0.0 0.0 0.0 0.0 0.0 0.0
0.0 0.0 0.0 0.0 0.0 0.0 0.0 0.0 0.0 0.0 0.0 0.0 0.0 0.0 0.0 0.0 0.0 0.0 0.0 0.0 0.0 0.0 0.0 0.0 0.0 nan nan nan 0.0 0.0 0.0 0.0 0.0 0.0 0.0 0.0 0.1 0.0 0.0 0.0 0.0 0.0 0.0
0.0 0.0 0.0 0.0 0.0 0.0 0.0 0.0 0.0 0.0 0.0 0.0 0.0 0.0 0.0 0.0 nan nan 0.0 0.0 0.0 0.0 0.0 0.0 0.0 0.0 0.0 nan nan nan nan 0.0 0.0 0.1 0.1 0.0 0.0 0.0 0.0 0.0 0.0 0.2 0.2
0.0 0.0 0.0 0.0 0.0 0.0 0.0 0.0 0.0 0.0 0.0 0.0 0.0 0.0 0.0 0.0 nan nan nan 0.0 0.0 0.0 0.0 0.0 0.0 0.0 nan 0.0 nan nan nan nan nan 0.0 0.0 0.0 0.0 0.0 0.0 0.0 0.0 0.2 0.1
0.0 0.0 0.0 0.0 0.0 0.0 0.0 0.0 0.0 0.0 0.0 0.0 0.0 0.0 0.0 0.0 nan nan nan 0.0 0.0 0.0 0.0 0.0 0.0 0.0 0.0 0.0 0.0 0.0 0.0 0.0 0.0 0.0 0.0 0.0 0.0 0.0 0.0 0.0 0.0 0.0 0.0
0.0 0.0 0.0 0.0 0.0 0.0 0.0 0.0 0.0 0.0 0.0 0.0 0.0 0.0 0.0 0.0 nan nan 0.0 0.0 0.0 0.0 0.0 0.0 0.0 0.0 nan nan 0.0 0.0 0.0 0.0 nan nan nan nan nan nan nan 0.1 0.3 0.5 0.3
0.0 0.0 0.0 0.0 0.0 0.0 0.0 0.0 0.0 0.0 0.0 0.1 0.0 0.0 nan 0.0 nan nan nan 0.0 0.0 0.0 0.0 0.0 nan 0.0 nan nan 0.0 0.0 0.0 0.0 0.0 0.0 0.0 0.0 nan nan nan 0.0 0.3 1.7 1.1
0.0 0.0 0.0 0.0 0.0 0.0 0.0 0.0 0.0 0.0 0.0 0.0 0.0 0.0 0.0 0.0 0.0 nan nan 0.0 0.0 0.0 0.0 0.0 0.0 nan nan nan nan 0.0 0.0 0.0 0.0 0.0 0.2 0.3 0.2 0.1 0.1 0.2 0.1 1.6 2.9
0.0 0.0 0.0 0.0 0.0 0.0 0.0 0.0 0.0 0.0 0.0 0.0 0.0 0.0 0.0 0.0 nan nan nan nan nan 0.0 0.0 0.0 0.0 nan nan nan nan nan nan nan 0.0 0.0 0.1 0.3 0.5 0.5 0.5 0.4 0.1 0.2 0.3
0.0 0.0 0.0 0.0 0.0 0.0 0.0 0.0 0.0 0.0 0.0 0.0 0.0 0.0 0.0 0.0 0.0 nan nan nan nan 0.0 0.0 0.0 nan nan nan nan nan nan nan 0.0 0.0 0.4 0.5 0.9 0.9 1.0 0.7 1.0 0.3 0.3 1.1
0.0 0.0 0.0 0.0 0.0 0.0 0.0 0.0 0.0 0.0 0.0 0.0 0.0 0.0 0.0 0.0 0.0 0.0 0.0 0.0 nan 0.0 nan 0.1 nan 0.0 nan nan 0.0 0.0 0.0 0.0 0.2 0.5 0.7 0.5 0.7 2.1 2.1 1.8 4.5 4.2 6.0
0.0 0.0 0.0 0.0 0.0 0.0 0.0 0.0 0.0 0.0 0.0 0.0 0.0 0.0 0.0 0.0 0.0 0.0 0.0 0.0 0.0 0.0 nan 0.0 0.0 0.0 0.1 0.0 0.0 0.0 0.0 0.0 0.5 0.5 1.0 1.5 1.4 2.3 3.2 3.2 5.8 6.6 10.3
0.0 0.0 0.0 0.0 0.0 0.0 0.0 0.0 nan nan nan nan nan 0.0 0.0 nan nan nan nan nan nan nan 0.0 0.0 0.1 0.2 0.2 0.0 0.0 0.0 0.1 0.6 0.6 1.2 1.8 2.3 3.9 5.1 5.9 6.8 7.5 9.3 11.3
0.0 0.0 0.0 0.0 0.0 0.0 0.0 0.0 0.0 0.0 nan nan nan nan nan nan nan nan nan nan nan nan 0.0 0.4 0.4 0.4 0.5 0.5 0.6 1.0 2.2 1.0 1.3 4.0 3.9 4.5 5.2 6.4 7.1 7.8 8.0 7.6 7.4
0.0 nan 0.0 0.0 0.0 0.0 0.0 0.0 0.0 0.0 0.0 0.0 nan nan nan nan nan nan nan nan 0.0 nan 0.4 0.7 1.1 1.1 1.2 1.9 2.2 3.1 2.8 2.7 3.6 4.0 5.0 6.3 8.0 9.9 10.2 8.9 7.4 9.8 7.5
0.0 0.0 0.0 0.0 0.0 0.0 0.0 0.0 0.0 0.0 0.0 0.0 0.0 0.0 nan nan nan nan nan 0.0 0.3 0.5 0.5 0.7 0.6 1.0 1.5 1.9 1.9 2.4 2.6 4.5 5.9 8.1 6.9 8.7 8.3 10.7 9.1 6.9 6.1 4.0 nan
0.0 nan 0.0 0.0 0.0 0.0 0.0 0.0 0.1 0.1 0.1 0.0 0.0 0.0 0.1 0.2 0.5 0.2 0.2 0.3 0.4 0.4 0.3 0.5 0.6 0.9 1.4 2.3 3.2 3.7 5.1 5.3 5.9 5.8 6.7 7.6 7.6 7.9 9.1 6.7 4.9 7.4 4.4
0.0 0.0 nan 0.0 0.0 0.1 0.1 0.1 0.1 0.2 0.2 0.2 0.1 0.1 nan 0.4 0.5 0.4 0.3 0.4 0.5 0.6 0.8 0.7 0.9 1.3 2.0 2.8 3.8 5.2 6.9 6.4 6.1 7.6 7.2 6.6 7.3 9.9 4.4 4.6 4.6 4.2 5.6
0.0 0.0 0.0 0.0 0.1 0.2 0.2 0.2 0.2 0.3 0.3 0.3 0.2 0.3 nan 0.1 0.5 0.7 0.7 0.8 0.8 0.8 0.8 1.3 2.1 2.3 3.2 5.9 6.7 7.6 7.5 8.1 7.8 8.5 7.8 6.5 6.3 5.4 5.1 5.4 4.9 5.1 5.8
0.0 0.0 0.0 0.0 0.1 nan 0.3 0.2 0.5 0.4 0.3 0.3 0.2 0.3 0.3 0.4 0.4 0.9 1.0 0.7 1.0 1.3 1.0 1.3 2.3 3.2 2.4 4.6 6.1 9.0 13.0 9.9 8.0 8.2 9.0 9.2 8.0 7.8 7.8 7.5 5.3 6.2 5.0
0.0 0.0 0.0 0.0 0.0 0.0 0.1 0.2 0.2 nan 0.4 0.5 0.4 0.2 0.2 0.1 0.2 0.4 0.6 0.6 0.9 0.8 1.1 1.5 2.0 2.9 3.5 5.5 6.2 7.9 9.8 11.1 8.5 9.0 10.8 11.4 9.1 5.9 6.1 6.5 5.4 5.5 5.5
0.0 0.0 0.0 0.0 0.0 0.0 0.1 0.2 0.3 0.4 0.6 0.7 0.7 0.7 0.4 0.5 0.6 1.0 0.7 1.2 1.6 2.1 1.5 1.5 2.4 3.6 4.7 6.8 7.3 8.0 7.3 nan 5.4 2.2 4.9 5.9 7.5 7.1 7.1 6.7 4.9 4.8 5.0
0.0 0.0 0.0 0.1 0.2 0.2 0.3 0.9 1.4 1.4 2.1 1.6 2.2 2.5 1.9 2.2 1.9 2.5 2.2 2.2 2.8 2.2 2.5 2.6 3.4 5.4 6.3 7.0 7.2 3.4 nan nan 1.8 nan 3.5 5.5 5.3 4.7 4.5 5.1 4.7 4.7 4.6
Water_Equivalent
0.00 0.00 0.00 0.00 0.00 0.00 0.00 0.00 0.00 0.00 0.00 0.00 0.00 0.00 0.00 0.00 0.00 0.00 0.00 0.00 0.00 0.00 0.00 0.00 0.00 0.00 0.00 0.00 0.00 0.00 0.00 0.00 0.00 0.00 0.00 0.00 0.00 0.00 0.00 0.00 0.00 0.00 0.00
0.00 0.00 0.00 0.00 0.00 0.00 0.00 0.00 0.00 0.00 0.00 0.00 0.00 0.00 0.00 0.00 0.00 0.00 0.00 0.00 0.00 0.00 0.00 0.00 0.00 0.00 0.00 0.00 0.00 0.00 0.00 0.00 0.00 0.00 0.00 0.00 0.00 0.00 0.00 0.00 0.00 0.00 0.00
0.00 0.00 0.00 0.00 0.00 0.00 0.00 0.00 0.00 0.00 0.00 0.00 0.00 0.00 0.00 0.00 0.00 0.00 0.00 0.00 0.00 0.00 0.00 0.00 0.00 0.00 0.00 0.00 0.00 0.00 0.00 0.00 0.00 0.00 0.00 0.00 0.00 0.00 0.00 0.00 0.00 0.00 0.00
0.00 0.00 0.00 0.00 0.00 0.00 0.00 0.00 0.00 0.00 0.00 0.00 0.00 0.00 0.00 0.00 0.00 0.00 0.00 0.00 0.00 0.00 0.00 0.00 0.00 0.00 0.00 0.00 0.00 0.00 0.00 0.00 0.00 0.00 0.00 0.00 0.00 0.00 0.00 0.00 0.00 0.00 0.00
0.00 0.00 0.00 0.00 0.00 0.00 0.00 0.00 0.00 0.00 0.00 0.00 0.00 0.00 0.00 0.00 0.00 0.00 0.00 0.00 0.00 0.00 0.00 0.00 0.00 nan nan nan 0.00 0.00 0.00 0.00 0.00 0.01 0.00 0.00 0.02 0.00 0.00 0.00 0.00 0.00 0.00
0.00 0.00 0.00 0.00 0.00 0.00 0.00 0.00 0.00 0.00 0.00 0.00 0.00 0.00 0.00 0.00 nan nan 0.00 0.00 0.00 0.00 0.00 0.00 0.00 0.00 0.00 nan nan nan nan 0.00 0.00 0.04 0.05 0.01 0.00 0.00 0.00 0.00 0.00 0.08 0.09
0.00 0.00 0.00 0.00 0.00 0.00 0.00 0.00 0.00 0.00 0.00 0.00 0.00 0.00 0.00 0.00 nan nan nan 0.01 0.00 0.00 0.00 0.00 0.00 0.00 nan 0.00 nan nan nan nan nan 0.00 0.00 0.00 0.00 0.00 0.00 0.01 0.01 0.07 0.03
0.00 0.00 0.00 0.00 0.00 0.00 0.00 0.00 0.00 0.00 0.00 0.00 0.00 0.00 0.00 0.00 nan nan nan 0.00 0.00 0.00 0.00 0.00 0.00 0.00 0.00 0.00 0.00 0.00 0.00 0.00 0.00 0.00 0.00 0.00 0.00 0.00 0.00 0.01 0.00 0.00 0.00
0.00 0.00 0.00 0.00 0.00 0.00 0.00 0.00 0.00 0.00 0.00 0.00 0.00 0.00 0.00 0.00 nan nan 0.00 0.00 0.00 0.00 0.00 0.00 0.00 0.00 nan nan 0.00 0.00 0.00 0.00 nan nan nan nan nan nan nan 0.03 0.14 0.20 0.12
0.00 0.00 0.00 0.00 0.00 0.00 0.00 0.00 0.00 0.00 0.00 0.03 0.00 0.00 nan 0.00 nan nan nan 0.00 0.00 0.00 0.00 0.00 nan 0.00 nan nan 0.00 0.00 0.00 0.00 0.00 0.00 0.00 0.00 nan nan nan 0.00 0.13 0.65 0.41
0.00 0.00 0.00 0.00 0.00 0.00 0.00 0.00 0.00 0.00 0.00 0.00 0.00 0.00 0.00 0.00 0.00 nan nan 0.00 0.00 0.00 0.00 0.00 0.00 nan nan nan nan 0.00 0.00 0.00 0.00 0.00 0.04 0.07 0.06 0.04 0.03 0.04 0.02 0.57 1.04
0.00 0.00 0.00 0.00 0.00 0.00 0.00 0.00 0.00 0.00 0.00 0.00 0.00 0.00 0.00 0.00 nan nan nan nan nan 0.00 0.00 0.00 0.00 nan nan nan nan nan nan nan 0.00 0.00 0.06 0.12 0.18 0.21 0.18 0.14 0.02 0.08 0.13
0.00 0.00 0.00 0.00 0.00 0.00 0.00 0.00 0.00 0.00 0.00 0.00 0.00 0.00 0.00 0.00 0.00 nan nan nan nan 0.00 0.00 0.00 nan nan nan nan nan nan nan 0.01 0.01 0.15 0.21 0.35 0.34 0.37 0.24 0.28 0.10 0.11 0.33
0.00 0.00 0.00 0.00 0.00 0.00 0.00 0.00 0.00 0.00 0.00 0.00 0.00 0.00 0.00 0.00 0.00 0.00 0.00 0.00 nan 0.00 nan 0.05 nan 0.00 nan nan 0.00 0.00 0.01 0.00 0.07 0.16 0.20 0.18 0.25 0.58 0.54 0.50 1.05 1.01 1.32
0.00 0.00 0.00 0.00 0.00 0.00 0.00 0.00 0.00 0.00 0.00 0.00 0.00 0.00 0.00 0.00 0.00 0.00 0.00 0.00 0.00 0.00 nan 0.00 0.00 0.00 0.03 0.00 0.00 0.00 0.00 0.00 0.15 0.15 0.28 0.37 0.38 0.58 0.73 0.80 1.27 1.45 1.72
0.00 0.00 0.00 0.00 0.00 0.00 0.00 0.00 nan nan nan nan nan 0.00 0.00 nan nan nan nan nan nan nan 0.00 0.00 0.05 0.06 0.07 0.00 0.00 0.01 0.03 0.20 0.19 0.36 0.48 0.58 0.87 1.04 1.17 1.40 1.59 1.58 1.66
0.00 0.00 0.00 0.00 0.00 0.00 0.00 0.00 0.00 0.00 nan nan nan nan nan nan nan nan nan nan nan nan 0.00 0.12 0.14 0.14 0.14 0.16 0.20 0.30 0.60 0.31 0.39 1.13 1.02 1.07 1.15 1.28 1.42 1.39 1.36 1.28 1.17
0.00 nan 0.00 0.00 0.00 0.00 0.00 0.00 0.00 0.00 0.00 0.00 nan nan nan nan nan nan nan nan 0.00 nan 0.13 0.20 0.30 0.30 0.35 0.54 0.61 0.83 0.76 0.73 0.93 1.04 1.20 1.38 1.63 1.90 1.83 1.51 1.23 1.43 1.20
0.00 0.00 0.00 0.00 0.00 0.00 0.00 0.00 0.00 0.00 0.00 0.00 0.00 0.00 nan nan nan nan nan 0.00 0.08 0.15 0.15 0.21 0.17 0.29 0.42 0.52 0.53 0.66 0.65 1.18 1.58 1.92 1.50 1.75 1.69 1.98 1.56 1.20 1.02 0.70 nan
0.00 nan 0.00 0.00 0.00 0.00 0.00 0.01 0.02 0.03 0.03 0.01 0.00 0.00 0.02 0.07 0.17 0.08 0.08 0.10 0.12 0.11 0.10 0.15 0.16 0.27 0.41 0.62 0.85 0.95 1.28 1.33 1.38 1.32 1.45 1.62 1.49 1.45 1.48 1.08 0.77 1.17 0.73
0.00 0.00 nan 0.00 0.01 0.02 0.02 0.04 0.04 0.06 0.07 0.06 0.03 0.02 nan 0.13 0.14 0.11 0.10 0.13 0.14 0.16 0.21 0.19 0.26 0.39 0.56 0.73 0.96 1.21 1.56 1.47 1.39 1.75 1.67 1.42 1.39 1.50 0.72 0.76 0.75 0.71 0.94
0.00 0.00 0.00 0.00 0.02 0.06 0.05 0.06 0.07 0.08 0.07 0.08 0.04 0.08 nan 0.02 0.14 0.18 0.18 0.20 0.19 0.20 0.19 0.31 0.52 0.57 0.80 1.38 1.53 1.72 1.53 1.63 1.66 1.85 1.67 1.39 1.21 0.91 0.84 0.87 0.81 0.89 0.99
0.00 0.00 0.00 0.00 0.01 nan 0.10 0.07 0.12 0.10 0.08 0.07 0.06 0.06 0.08 0.09 0.09 0.21 0.23 0.17 0.25 0.30 0.23 0.31 0.53 0.73 0.60 1.04 1.49 2.04 2.67 1.79 1.67 1.73 1.61 1.36 1.21 1.18 1.23 1.21 0.92 1.01 0.82
0.00 0.00 0.00 0.00 0.00 0.01 0.04 0.05 0.06 nan 0.12 0.11 0.09 0.05 0.05 0.03 0.04 0.08 0.14 0.15 0.21 0.19 0.29 0.36 0.47 0.64 0.77 1.19 1.24 1.61 1.96 2.16 1.87 1.91 2.20 2.14 1.46 1.02 1.00 1.05 0.88 0.84 0.87
0.00 0.00 0.00 0.00 0.01 0.01 0.02 0.05 0.08 0.07 0.12 0.12 0.12 0.13 0.10 0.12 0.13 0.21 0.15 0.26 0.35 0.41 0.30 0.32 0.53 0.72 0.83 1.18 1.35 1.48 1.37 nan 1.28 0.73 1.06 1.12 1.24 1.10 1.12 1.11 0.80 0.81 0.79
0.01 0.01 0.01 0.03 0.06 0.06 0.08 0.19 0.28 0.29 0.40 0.29 0.37 0.42 0.32 0.36 0.31 0.47 0.42 0.41 0.50 0.41 0.44 0.49 0.57 0.81 1.00 1.27 1.41 0.91 nan nan 0.46 nan 0.73 1.01 0.89 0.81 0.79 0.83 0.75 0.77 0.75
SL_Ratio
nan nan nan nan nan nan nan nan nan nan nan nan nan nan nan nan nan nan nan nan nan nan nan nan nan nan nan nan nan nan nan nan nan nan nan nan nan nan nan nan nan nan nan
nan nan nan nan nan nan nan nan nan nan nan nan nan nan nan nan nan nan nan nan nan nan nan nan nan nan nan nan nan nan nan nan nan nan nan nan nan nan nan nan nan nan nan
nan nan nan nan nan nan nan nan nan nan nan nan nan nan nan nan nan nan nan nan nan nan nan nan nan nan nan nan nan nan nan nan nan nan nan nan nan nan nan nan nan nan nan
nan nan nan nan nan nan nan nan nan nan nan nan nan nan nan nan nan nan nan nan nan nan nan nan nan nan nan nan nan nan nan nan nan nan nan nan nan nan nan nan nan nan nan
nan nan nan nan nan nan nan nan nan nan nan nan nan nan nan nan nan nan nan nan nan nan nan nan nan nan nan nan nan nan nan nan nan 2.5 2.2 2.3 2.5 nan nan nan nan nan nan
nan nan nan nan nan nan nan nan nan nan nan nan nan nan nan nan nan nan nan nan nan nan nan nan nan nan nan nan nan nan nan nan nan 2.5 2.5 2.8 nan nan nan nan 3.3 2.5 2.7
nan nan nan nan nan nan nan nan nan nan nan nan nan nan nan nan nan nan nan 2.2 2.7 nan nan nan nan nan nan nan nan nan nan nan nan nan nan nan nan nan nan 2.6 2.3 2.5 2.5
nan nan nan nan nan nan nan nan nan nan nan nan nan nan nan nan nan nan nan nan nan nan nan nan nan nan nan nan nan nan nan nan nan nan nan nan nan nan 0.0 2.5 2.5 nan 5.0
nan nan nan nan nan nan nan nan nan nan nan nan nan nan nan nan nan nan nan nan nan nan nan nan nan nan nan nan nan 5.0 nan nan nan nan nan nan nan nan nan 2.5 2.5 2.5 2.5
nan nan nan nan nan nan nan nan nan nan nan 2.5 nan nan nan nan nan nan nan nan nan nan nan nan nan nan nan nan nan nan nan nan 0.0 3.3 nan nan nan nan nan nan 2.5 2.6 2.6
nan nan nan nan nan nan nan nan nan nan nan nan nan nan nan nan nan nan nan nan nan nan nan nan nan nan nan nan nan nan nan nan nan nan 4.3 4.4 4.3 3.9 4.9 4.2 4.1 2.7 2.8
nan nan nan nan nan nan nan nan nan nan nan nan nan nan nan nan nan nan nan nan nan nan nan nan nan nan nan nan nan nan nan nan nan nan 2.5 2.5 2.7 2.6 2.5 2.5 2.9 2.6 2.6
nan nan nan nan nan nan nan nan nan nan nan nan nan nan nan nan nan nan nan nan nan nan nan nan nan nan nan nan nan nan nan 2.3 2.5 3.1 2.6 2.6 2.7 2.6 3.0 3.4 3.4 3.1 3.3
nan nan nan nan nan nan nan nan nan nan nan nan nan nan nan nan nan nan nan nan nan nan nan 2.5 nan nan nan nan nan nan 2.6 nan 3.2 3.4 3.3 2.8 2.9 3.6 3.9 3.6 4.3 4.2 4.6
nan nan nan nan nan nan nan nan nan nan nan nan nan nan nan nan nan nan nan nan nan nan nan nan nan nan 2.6 nan nan nan nan 5.0 3.3 3.3 3.6 4.0 3.8 3.9 4.3 4.0 4.5 4.6 6.0
nan nan nan nan nan nan nan nan nan nan nan nan nan nan nan nan nan nan nan nan nan nan nan nan 2.9 2.9 3.0 3.3 3.3 3.3 2.7 3.1 3.3 3.4 3.7 4.0 4.5 4.9 5.1 4.9 4.7 5.8 6.8
nan nan nan nan nan nan nan nan 0.0 nan nan nan nan nan nan nan nan nan nan nan nan nan nan 3.1 3.2 3.2 3.3 3.3 3.3 3.3 3.7 3.2 3.2 3.6 3.8 4.2 4.5 5.0 5.0 5.6 5.9 5.9 6.3
nan nan nan nan nan nan nan nan nan nan nan nan nan nan nan nan nan nan nan nan nan nan 3.1 3.3 3.6 3.5 3.5 3.6 3.6 3.7 3.7 3.8 3.8 3.9 4.2 4.5 4.9 5.2 5.5 5.9 6.0 6.8 6.2
nan nan nan nan nan nan nan 5.0 nan 4.0 nan nan nan nan nan nan nan nan nan nan 3.3 3.4 3.3 3.4 3.3 3.5 3.5 3.5 3.6 3.7 4.0 3.8 3.8 4.3 4.6 5.0 4.9 5.4 5.8 5.8 6.0 5.8 nan
nan nan nan nan nan nan 3.3 3.3 3.5 3.4 3.6 3.2 3.3 2.5 3.1 2.6 2.9 2.7 2.7 2.9 3.2 3.4 3.4 3.5 3.4 3.3 3.5 3.6 3.8 3.9 4.0 3.9 4.2 4.4 4.6 4.7 5.1 5.5 6.2 6.2 6.4 6.3 6.1
nan nan nan nan 3.1 3.1 3.2 3.5 3.4 3.4 3.5 3.7 3.4 3.1 nan 3.1 3.5 3.3 3.2 3.3 3.5 3.6 3.6 3.7 3.4 3.4 3.6 3.9 4.0 4.3 4.4 4.3 4.4 4.4 4.3 4.7 5.2 6.6 6.1 6.1 6.1 5.9 5.9
nan nan nan nan 3.4 3.5 3.2 3.2 3.3 3.9 3.9 4.0 3.8 3.4 nan 3.3 3.9 4.1 4.2 4.0 4.0 4.0 3.9 4.2 4.0 4.1 4.0 4.3 4.4 4.4 4.9 4.9 4.7 4.6 4.6 4.6 5.2 5.9 6.0 6.1 6.1 5.7 5.8
nan nan nan nan 3.7 nan 3.2 3.4 4.3 4.4 4.3 4.1 3.9 4.0 4.0 4.1 4.2 4.2 4.4 4.2 4.1 4.2 4.4 4.3 4.3 4.4 4.0 4.4 4.1 4.4 4.9 5.5 4.8 4.7 5.6 6.8 6.6 6.6 6.3 6.2 5.8 6.2 6.1
nan nan nan nan nan 3.8 3.7 3.9 4.0 nan 3.6 4.1 4.1 3.9 3.9 4.4 4.5 4.7 4.0 3.9 4.3 4.2 3.9 4.2 4.2 4.5 4.5 4.6 5.0 4.9 5.0 5.1 4.5 4.7 4.9 5.3 6.2 5.8 6.0 6.2 6.1 6.5 6.3
nan nan nan 4.0 3.8 3.7 4.1 3.3 4.1 5.0 5.3 5.4 5.7 5.4 4.3 4.5 4.8 4.9 4.4 4.6 4.6 5.0 4.9 4.9 4.4 5.0 5.7 5.8 5.4 5.4 5.3 nan 4.2 3.0 4.6 5.2 6.0 6.5 6.4 6.0 6.2 6.0 6.4
3.0 3.2 3.2 3.0 3.6 3.7 4.2 5.0 5.0 4.9 5.2 5.5 6.0 5.9 5.9 6.2 6.1 5.3 5.4 5.5 5.7 5.4 5.8 5.4 5.9 6.7 6.3 5.5 5.1 3.8 nan nan 3.9 nan 4.8 5.5 6.0 5.8 5.7 6.1 6.3 6.0 6.2